N2XGL-1 Weather Reports


Display with metric or nautical units.
time (UTC)temp
F
wind
direction
speed
MPH
gust
MPH
rain 1hr
in
rain 24hr
in
rain mn
in
humidity
%
barometer
mb
20260901003101 77 270 8.0 15.0 0.00 0.00 0.00 42 1006.3
20260901002221 77 270 7.0 14.0 0.00 0.00 0.00 42 1006.2
20260901001408 78 270 9.0 12.0 0.00 0.00 0.00 41 1006.3
20260901001335 78 270 9.0 12.0 0.00 0.00 0.00 41 1006.3
20260831235537 79 270 2.0 5.0 0.00 0.00 0.00 45 1006.2
20260831235451 79 270 2.0 5.0 0.00 0.00 0.00 45 1006.2
20260831234525 79 292 2.0 5.0 0.00 0.00 0.00 45 1006.1
20260831233525 79 270 2.0 5.0 0.00 0.00 0.00 45 1006.1
20260831232541 79 270 3.0 5.0 0.00 0.00 0.00 48 1006.0
20260831231726 80 248 4.0 7.0 0.00 0.00 0.00 45 1006.2
20260831230921 80 0 0.0 1.0 0.00 0.00 0.00 44 1006.3
20260831230131 81 270 1.0 2.0 0.00 0.00 0.00 44 1006.4
20260831225956 81 270 1.0 2.0 0.00 0.00 0.00 44 1006.4
20260831225145 81 202 1.0 3.0 0.00 0.00 0.00 41 1006.3
20260831224403 81 135 2.0 6.0 0.00 0.00 0.00 44 1006.4
20260831224315 81 135 2.0 6.0 0.00 0.00 0.00 44 1006.4
20260831223425 82 158 2.0 6.0 0.00 0.00 0.00 35 1006.5
20260831222700 82 135 3.0 5.0 0.00 0.00 0.00 40 1006.5
20260831222551 82 135 3.0 5.0 0.00 0.00 0.00 40 1006.5
20260831221701 82 158 3.0 6.0 0.00 0.01 0.00 37 1006.6
20260831221610 82 158 3.0 6.0 0.00 0.01 0.00 37 1006.6
20260831220630 82 135 2.0 6.0 0.00 0.01 0.00 39 1006.7
20260831215906 82 135 1.0 4.0 0.00 0.01 0.00 42 1006.7
20260831215821 82 135 1.0 4.0 0.00 0.01 0.00 42 1006.7
20260831215020 83 112 2.0 5.0 0.00 0.01 0.00 40 1006.8
20260831214139 83 135 1.0 4.0 0.00 0.01 0.00 43 1006.8
20260831214105 83 135 1.0 4.0 0.00 0.01 0.00 43 1006.8
20260831213106 81 158 2.0 4.0 0.00 0.01 0.00 47 1007.0
20260831212206 80 158 2.0 4.0 0.00 0.01 0.00 46 1007.3
20260831211226 80 112 1.0 2.0 0.00 0.01 0.00 46 1007.4
20260831210535 80 158 3.0 7.0 0.00 0.01 0.00 41 1007.5
20260831210332 80 158 3.0 7.0 0.00 0.01 0.00 41 1007.5
20260831205525 80 112 2.0 4.0 0.00 0.01 0.00 44 1007.6
20260831204701 80 68 2.0 5.0 0.00 0.01 0.00 42 1007.8
20260831203818 80 90 1.0 3.0 0.00 0.01 0.00 45 1008.0
20260831203716 80 90 1.0 3.0 0.00 0.01 0.00 45 1008.0
20260831202750 80 68 1.0 2.0 0.00 0.01 0.00 45 1008.1
20260831201805 79 68 1.0 2.0 0.00 0.01 0.00 43 1008.3
20260831200914 80 180 1.0 4.0 0.00 0.02 0.00 39 1008.5
20260831200830 80 180 1.0 4.0 0.00 0.02 0.00 39 1008.5
20260831195830 79 202 1.0 3.0 0.00 0.02 0.00 46 1008.7
20260831194916 79 202 2.0 4.0 0.00 0.02 0.00 43 1008.8
20260831194031 79 270 1.0 4.0 0.00 0.02 0.00 47 1008.8
20260831193253 79 158 2.0 3.0 0.00 0.02 0.00 45 1008.9
20260831193145 79 158 2.0 3.0 0.00 0.02 0.00 45 1008.9
20260831192346 80 22 2.0 3.0 0.00 0.03 0.00 41 1009.1
20260831191534 81 180 3.0 4.0 0.00 0.04 0.00 45 1009.1
20260831190640 80 202 2.0 3.0 0.00 0.07 0.00 46 1009.2
20260831185826 79 135 1.0 3.0 0.00 0.07 0.00 45 1009.4
20260831184945 78 90 2.0 4.0 0.00 0.07 0.00 48 1009.4
20260831184125 78 248 1.0 3.0 0.00 0.07 0.00 46 1009.5
20260831183250 76 158 2.0 4.0 0.00 0.07 0.00 52 1009.6
20260831183150 76 158 2.0 4.0 0.00 0.07 0.00 52 1009.6
20260831182350 75 0 0.0 2.0 0.00 0.07 0.00 52 1009.7
20260831181538 75 158 2.0 4.0 0.00 0.07 0.00 58 1009.8
20260831181500 75 158 2.0 4.0 0.00 0.07 0.00 58 1009.8
20260831180625 75 0 0.0 1.0 0.00 0.07 0.00 57 1009.7
20260831175013 75 135 2.0 4.0 0.00 0.07 0.00 57 1009.8
20260831174931 75 135 2.0 4.0 0.00 0.07 0.00 57 1009.8
20260831174051 75 112 2.0 3.0 0.00 0.07 0.00 55 1009.7
20260831173452 74 158 1.0 2.0 0.00 0.07 0.00 56 1009.8
20260831173138 74 158 1.0 2.0 0.00 0.07 0.00 56 1009.8
20260831172425 74 180 1.0 3.0 0.00 0.07 0.00 57 1009.9
20260831172210 74 180 1.0 3.0 0.00 0.07 0.00 57 1009.9
20260831171336 74 112 1.0 3.0 0.00 0.07 0.00 61 1009.8
20260831170528 73 68 1.0 3.0 0.00 0.07 0.00 56 1009.7
20260831170437 73 68 1.0 3.0 0.00 0.07 0.00 56 1009.7
20260831165501 73 90 1.0 4.0 0.00 0.07 0.00 62 1009.8
20260831164516 72 135 1.0 2.0 0.00 0.07 0.00 60 1009.9
20260831163701 72 0 0.0 2.0 0.00 0.07 0.00 60 1009.8
20260831163610 72 0 0.0 2.0 0.00 0.07 0.00 60 1009.8
20260831162705 71 68 2.0 3.0 0.00 0.07 0.00 62 1009.8
20260831161933 71 90 1.0 3.0 0.00 0.07 0.00 61 1009.7
20260831161835 71 90 1.0 3.0 0.00 0.07 0.00 61 1009.7
20260831160926 70 0 0.0 1.0 0.00 0.07 0.00 65 1009.7
20260831160118 70 180 1.0 3.0 0.00 0.07 0.00 64 1009.6
20260831160030 70 180 1.0 3.0 0.00 0.07 0.00 64 1009.6
20260831155115 69 270 1.0 2.0 0.00 0.07 0.00 63 1009.6
20260831154141 68 135 1.0 2.0 0.00 0.07 0.00 65 1009.7
20260831153146 68 0 0.0 2.0 0.00 0.07 0.00 67 1009.9
20260831152255 67 158 1.0 4.0 0.00 0.07 0.00 70 1009.9
20260831151316 67 158 1.0 2.0 0.00 0.07 0.00 72 1009.7
20260831150426 66 202 1.0 3.0 0.00 0.07 0.00 70 1009.8
20260831145441 65 225 1.0 3.0 0.00 0.07 0.00 70 1010.0
20260831144635 65 202 1.0 2.0 0.00 0.07 0.00 71 1009.9
20260831144019 64 90 1.0 2.0 0.00 0.07 0.00 73 1009.8
20260831143801 64 90 1.0 2.0 0.00 0.07 0.00 73 1009.8
20260831142203 63 45 1.0 4.0 0.00 0.07 0.00 75 1009.4
20260831141930 63 45 1.0 4.0 0.00 0.07 0.00 75 1009.4
20260831141238 63 112 1.0 4.0 0.00 0.07 0.00 75 1009.4
20260831141115 63 112 1.0 4.0 0.00 0.07 0.00 75 1009.4
20260831140537 62 45 2.0 4.0 0.00 0.07 0.00 76 1009.3
20260831140140 62 45 2.0 4.0 0.00 0.07 0.00 76 1009.3
20260831135330 61 0 0.0 2.0 0.00 0.07 0.00 76 1009.2
20260831134346 61 0 0.0 2.0 0.00 0.07 0.00 75 1009.1
20260831133453 61 45 1.0 3.0 0.00 0.07 0.00 74 1009.0
20260831133410 61 45 1.0 3.0 0.00 0.07 0.00 74 1009.0
20260831132530 60 68 1.0 2.0 0.00 0.07 0.00 73 1009.0
20260831131625 60 0 0.0 1.0 0.00 0.07 0.00 72 1008.8
20260831130650 61 270 2.0 3.0 0.00 0.07 0.00 71 1008.8
20260831125826 61 248 1.0 2.0 0.00 0.07 0.00 70 1008.7
20260831124906 61 202 1.0 2.0 0.00 0.07 0.00 69 1008.5
20260831123921 61 0 0.0 1.0 0.00 0.07 0.00 68 1008.4
20260831123059 61 315 1.0 2.0 0.00 0.07 0.00 68 1008.3
20260831122952 61 315 1.0 2.0 0.00 0.07 0.00 68 1008.3
20260831122106 61 0 0.0 2.0 0.00 0.07 0.00 65 1008.3
20260831122015 61 0 0.0 2.0 0.00 0.07 0.00 65 1008.3
20260831121057 61 22 2.0 4.0 0.00 0.07 0.00 65 1008.1
20260831121020 61 22 2.0 4.0 0.00 0.07 0.00 65 1008.1
20260831120150 61 22 2.0 3.0 0.00 0.07 0.00 67 1008.1
20260831115231 61 0 0.0 1.0 0.00 0.07 0.00 67 1008.1
20260831114425 61 292 1.0 2.0 0.00 0.07 0.00 67 1008.1
20260831112703 62 338 2.0 5.0 0.00 0.07 0.00 69 1007.9
20260831112545 62 338 2.0 5.0 0.00 0.07 0.00 69 1007.9
20260831111555 62 0 0.0 1.0 0.00 0.07 0.00 65 1007.8
20260831105754 63 0 2.0 4.0 0.00 0.07 0.00 66 1007.8
20260831104931 62 0 1.0 2.0 0.00 0.07 0.00 63 1007.7
20260831104120 62 22 2.0 4.0 0.00 0.07 0.00 65 1007.6
20260831103226 62 315 2.0 6.0 0.00 0.07 0.00 68 1007.5
20260831102258 62 270 2.0 3.0 0.00 0.07 0.00 66 1007.3
20260831101440 63 0 0.0 1.0 0.00 0.07 0.00 62 1007.2
20260831100510 63 68 1.0 2.0 0.00 0.07 0.00 62 1007.0
20260831095515 63 0 0.0 0.0 0.00 0.07 0.00 61 1007.1
20260831094650 63 0 0.0 0.0 0.00 0.07 0.00 60 1007.1
20260831093902 64 68 1.0 2.0 0.00 0.07 0.00 63 1006.9
20260831093725 64 68 1.0 2.0 0.00 0.07 0.00 63 1006.9
20260831093015 65 0 0.0 1.0 0.00 0.07 0.00 60 1006.8
20260831092915 65 0 0.0 1.0 0.00 0.07 0.00 60 1006.8
20260831092100 66 45 1.0 2.0 0.00 0.07 0.00 62 1006.8
20260831091916 66 45 1.0 2.0 0.00 0.07 0.00 62 1006.8
20260831091230 67 315 1.0 2.0 0.00 0.07 0.00 59 1006.9
20260831091050 67 315 1.0 2.0 0.00 0.07 0.00 59 1006.9
20260831090241 68 135 1.0 3.0 0.00 0.07 0.00 54 1006.9
20260831085440 68 22 1.0 3.0 0.00 0.07 0.00 54 1006.9
20260831084741 69 45 2.0 4.0 0.00 0.07 0.00 50 1007.0
20260831084625 69 45 2.0 4.0 0.00 0.07 0.00 50 1007.0
20260831083905 70 22 1.0 3.0 0.00 0.07 0.00 50 1006.9
20260831083745 70 22 1.0 3.0 0.00 0.07 0.00 50 1006.9
20260831082834 69 270 8.0 14.0 0.00 0.07 0.00 46 1006.9
20260831082030 67 248 8.0 15.0 0.00 0.07 0.00 49 1006.8
20260831081325 65 248 2.0 7.0 0.00 0.07 0.00 61 1006.9
20260831081051 65 248 2.0 7.0 0.00 0.07 0.00 61 1006.9
20260831080541 66 270 2.0 5.0 0.00 0.07 0.00 60 1007.1
20260831080145 66 270 2.0 5.0 0.00 0.07 0.00 60 1007.1
20260831075155 66 270 2.0 6.0 0.00 0.07 0.00 60 1007.2
20260831074322 66 135 3.0 9.0 0.00 0.07 0.00 60 1007.2
20260831074251 66 135 3.0 9.0 0.00 0.07 0.00 60 1007.2
20260831073536 66 90 1.0 3.0 0.00 0.07 0.00 57 1007.7
20260831073336 66 90 1.0 3.0 0.00 0.07 0.00 57 1007.7
20260831072530 67 135 1.0 3.0 0.00 0.07 0.00 57 1007.6
20260831071531 67 292 2.0 4.0 0.00 0.07 0.00 58 1007.7
20260831070651 68 248 2.0 7.0 0.00 0.07 0.00 57 1007.5
20260831070540 68 248 2.0 7.0 0.00 0.07 0.00 57 1007.5
20260831065600 68 248 3.0 7.0 0.00 0.07 0.00 53 1007.5
20260831064740 68 225 4.0 11.0 0.00 0.07 0.00 55 1007.5
20260831064606 68 225 4.0 11.0 0.00 0.07 0.00 55 1007.5
20260831063703 68 225 4.0 10.0 0.00 0.07 0.00 57 1007.5
20260831063625 68 225 4.0 10.0 0.00 0.07 0.00 57 1007.5
20260831062826 68 225 2.0 6.0 0.00 0.07 0.00 57 1007.6
20260831062020 68 248 2.0 3.0 0.00 0.07 0.00 55 1007.8
20260831061020 68 248 6.0 11.0 0.00 0.07 0.00 52 1007.8
20260831060540 68 248 5.0 10.0 0.00 0.07 0.00 53 1007.8
20260831060206 68 248 5.0 10.0 0.00 0.07 0.00 53 1007.8
20260831055519 68 225 3.0 6.0 0.00 0.07 0.00 57 1007.9
20260831055306 68 225 3.0 6.0 0.00 0.07 0.00 57 1007.9
20260831054335 68 225 3.0 5.0 0.00 0.07 0.00 56 1008.0
20260831053400 68 225 3.0 6.0 0.00 0.07 0.00 57 1008.1
20260831052535 68 225 3.0 6.0 0.00 0.07 0.00 57 1008.4
20260831051553 66 225 4.0 9.0 0.00 0.07 0.00 59 1008.5
20260831050750 65 248 4.0 12.0 0.00 0.07 0.00 68 1008.8
20260831045921 64 248 2.0 4.0 0.00 0.07 0.00 70 1008.7
20260831044925 63 158 2.0 5.0 0.00 0.07 0.00 75 1008.7
20260831044036 63 112 2.0 4.0 0.00 0.07 0.00 75 1008.6
20260831043106 63 270 1.0 3.0 0.00 0.07 0.00 74 1008.5
20260831042114 63 248 1.0 2.0 0.00 0.07 0.00 73 1008.2
20260831041542 63 0 0.0 2.0 0.00 0.07 0.00 71 1007.8
20260831041135 63 0 0.0 2.0 0.00 0.07 0.00 71 1007.8
20260831040135 63 0 0.0 2.0 0.00 0.07 0.00 69 1007.7
20260831035539 63 0 1.0 2.0 0.00 0.07 0.00 71 1007.7
20260831035330 63 0 1.0 2.0 0.00 0.07 0.00 71 1007.7
20260831034436 63 292 1.0 3.0 0.00 0.07 0.00 73 1007.7
20260831033545 63 338 1.0 2.0 0.00 0.07 0.00 73 1007.6
20260831033506 63 338 1.0 2.0 0.00 0.07 0.00 73 1007.6
20260831032545 63 292 1.0 2.0 0.00 0.07 0.00 73 1007.7
20260831031725 63 0 0.0 2.0 0.00 0.07 0.00 71 1007.5
20260831030856 64 0 0.0 1.0 0.00 0.07 0.00 71 1007.3
20260831030027 64 292 1.0 3.0 0.00 0.07 0.00 72 1007.1
20260831025945 64 292 1.0 3.0 0.00 0.07 0.00 72 1007.1
20260831025000 65 270 1.0 3.0 0.00 0.07 0.00 73 1007.2
20260831024016 65 270 2.0 6.0 0.00 0.07 0.00 73 1007.1
20260831023454 65 135 1.0 2.0 0.00 0.07 0.00 72 1006.8
20260831023045 65 135 1.0 2.0 0.00 0.07 0.00 72 1006.8
20260831022146 66 158 1.0 4.0 0.00 0.07 0.00 71 1006.7
20260831021215 66 0 0.0 1.0 0.00 0.07 0.00 64 1006.4
20260831020306 66 315 1.0 2.0 0.00 0.07 0.00 64 1006.4
20260831015543 67 0 1.0 3.0 0.00 0.07 0.00 66 1006.4
20260831015325 67 0 1.0 3.0 0.00 0.07 0.00 66 1006.4
20260831014341 67 0 0.0 1.0 0.00 0.07 0.00 63 1006.3
20260831013546 68 338 1.0 2.0 0.00 0.07 0.00 64 1006.2
20260831013341 68 338 1.0 2.0 0.00 0.07 0.00 64 1006.2
20260831012536 68 338 1.0 2.0 0.00 0.07 0.00 63 1006.3
20260831011016 69 338 1.0 2.0 0.00 0.07 0.00 64 1006.0
20260831010915 69 338 1.0 2.0 0.00 0.07 0.00 64 1006.0
20260831010027 70 270 1.0 5.0 0.00 0.07 0.00 60 1006.0
20260831005945 70 270 1.0 5.0 0.00 0.07 0.00 60 1006.0
20260831005125 70 0 2.0 3.0 0.00 0.07 0.00 60 1005.9
20260831004156 70 338 1.0 3.0 0.00 0.07 0.00 60 1006.0